| time (UTC) | temp F | wind direction | speed knots | gust knots | rain 1hr in | rain 24hr in | rain mn in | humidity % | barometer mb |
| 20260906132018 | 79 | 357 | 1.7 | 4.3 | 0.00 | 0.41 | 0.02 | 93 | 1011.6 |
| 20260906131522 | 79 | 58 | 1.7 | 5.2 | 0.00 | 0.41 | 0.02 | 93 | 1011.6 |
| 20260906131016 | 79 | 60 | 1.7 | 5.2 | 0.00 | 0.41 | 0.02 | 93 | 1011.5 |
| 20260906130515 | 79 | 50 | 0.9 | 3.5 | 0.00 | 0.41 | 0.02 | 94 | 1011.4 |
| 20260906125516 | 79 | 70 | 0.0 | 3.5 | 0.00 | 0.41 | 0.02 | 97 | 1011.4 |
| 20260906125015 | 78 | 75 | 0.0 | 3.5 | 0.00 | 0.41 | 0.02 | 97 | 1011.3 |
| 20260906124515 | 78 | 353 | 0.0 | 3.5 | 0.00 | 0.41 | 0.02 | 97 | 1011.3 |
| 20260906124014 | 77 | 24 | 0.9 | 3.5 | 0.01 | 0.41 | 0.02 | 98 | 1011.4 |
| 20260906123511 | 77 | 75 | 0.0 | 2.6 | 0.01 | 0.41 | 0.02 | 98 | 1011.3 |
| 20260906123011 | 76 | 22 | 0.0 | 2.6 | 0.01 | 0.41 | 0.02 | 99 | 1011.3 |
| 20260906122511 | 76 | 354 | 0.0 | 2.6 | 0.01 | 0.41 | 0.02 | 99 | 1011.4 |
| 20260906122009 | 75 | 345 | 0.0 | 2.6 | 0.01 | 0.41 | 0.02 | 99 | 1011.4 |
| 20260906121508 | 75 | 20 | 0.0 | 3.5 | 0.01 | 0.41 | 0.02 | 99 | 1011.4 |
| 20260906121011 | 75 | 53 | 0.0 | 3.5 | 0.01 | 0.41 | 0.02 | 99 | 1011.4 |
| 20260906120507 | 75 | 66 | 0.0 | 1.7 | 0.01 | 0.41 | 0.02 | 99 | 1011.5 |
| 20260906115504 | 74 | 348 | 0.0 | 1.7 | 0.01 | 0.41 | 0.02 | 100 | 1011.3 |
| 20260906115002 | 74 | 335 | 0.0 | 0.9 | 0.01 | 0.41 | 0.02 | 100 | 1011.3 |
| 20260906114502 | 73 | 22 | 0.0 | 1.7 | 0.01 | 0.41 | 0.02 | 100 | 1011.3 |
| 20260906114003 | 73 | 22 | 0.0 | 2.6 | 0.01 | 0.41 | 0.02 | 100 | 1011.2 |
| 20260906113600 | 72 | 13 | 0.0 | 2.6 | 0.00 | 0.40 | 0.01 | 100 | 1011.1 |
| 20260906113059 | 72 | 229 | 0.0 | 1.7 | 0.00 | 0.40 | 0.01 | 100 | 1011.1 |
| 20260906112558 | 71 | 252 | 0.0 | 0.9 | 0.00 | 0.40 | 0.01 | 100 | 1011.1 |
| 20260906112058 | 71 | 252 | 0.0 | 0.9 | 0.01 | 0.40 | 0.01 | 100 | 1011.1 |
| 20260906111559 | 71 | 252 | 0.0 | 0.9 | 0.01 | 0.40 | 0.01 | 100 | 1011.1 |
| 20260906111057 | 71 | 252 | 0.0 | 0.0 | 0.01 | 0.40 | 0.01 | 100 | 1011.0 |
| 20260906110557 | 71 | 252 | 0.0 | 0.0 | 0.01 | 0.40 | 0.01 | 100 | 1010.9 |
| 20260906105556 | 70 | 252 | 0.0 | 0.0 | 0.01 | 0.41 | 0.01 | 100 | 1010.8 |
| 20260906105056 | 70 | 252 | 0.0 | 0.0 | 0.01 | 0.41 | 0.01 | 100 | 1010.8 |
| 20260906104556 | 70 | 252 | 0.0 | 0.0 | 0.01 | 0.41 | 0.01 | 100 | 1010.8 |
| 20260906104055 | 70 | 252 | 0.0 | 0.0 | 0.01 | 0.41 | 0.01 | 100 | 1010.7 |
| 20260906103556 | 70 | 252 | 0.0 | 0.0 | 0.01 | 0.41 | 0.01 | 100 | 1010.6 |
| 20260906103055 | 70 | 252 | 0.0 | 0.0 | 0.01 | 0.41 | 0.01 | 100 | 1010.5 |
| 20260906102555 | 70 | 252 | 0.0 | 0.0 | 0.01 | 0.41 | 0.01 | 100 | 1010.5 |
| 20260906102056 | 70 | 252 | 0.0 | 0.0 | 0.00 | 0.40 | 0.00 | 100 | 1010.5 |
| 20260906101558 | 70 | 252 | 0.0 | 0.0 | 0.00 | 0.40 | 0.00 | 100 | 1010.5 |
| 20260906101056 | 70 | 252 | 0.0 | 0.0 | 0.00 | 0.40 | 0.00 | 99 | 1010.5 |
| 20260906100554 | 70 | 252 | 0.0 | 0.0 | 0.00 | 0.40 | 0.00 | 99 | 1010.5 |
| 20260906095559 | 70 | 252 | 0.0 | 0.0 | 0.00 | 0.40 | 0.00 | 99 | 1010.3 |
| 20260906095055 | 70 | 252 | 0.0 | 0.0 | 0.00 | 0.40 | 0.00 | 99 | 1010.3 |
| 20260906094559 | 70 | 252 | 0.0 | 0.0 | 0.00 | 0.40 | 0.00 | 99 | 1010.2 |
| 20260906094054 | 70 | 252 | 0.0 | 0.0 | 0.00 | 0.40 | 0.00 | 99 | 1010.1 |
| 20260906093557 | 70 | 252 | 0.0 | 0.0 | 0.00 | 0.40 | 0.00 | 99 | 1010.1 |
| 20260906093058 | 70 | 252 | 0.0 | 0.0 | 0.00 | 0.40 | 0.00 | 99 | 1010.0 |
| 20260906092556 | 70 | 252 | 0.0 | 0.0 | 0.00 | 0.40 | 0.00 | 99 | 1010.0 |
| 20260906092056 | 70 | 252 | 0.0 | 0.0 | 0.00 | 0.40 | 0.00 | 99 | 1009.9 |
| 20260906091555 | 70 | 252 | 0.0 | 0.0 | 0.00 | 0.40 | 0.00 | 100 | 1009.8 |
| 20260906091058 | 70 | 252 | 0.0 | 0.0 | 0.00 | 0.40 | 0.00 | 100 | 1009.9 |
| 20260906090552 | 70 | 252 | 0.0 | 0.0 | 0.00 | 0.40 | 0.00 | 100 | 1009.9 |
| 20260906085554 | 70 | 252 | 0.0 | 0.0 | 0.00 | 0.40 | 0.00 | 99 | 1009.8 |
| 20260906085055 | 70 | 252 | 0.0 | 0.0 | 0.00 | 0.40 | 0.00 | 99 | 1009.7 |
| 20260906084556 | 70 | 252 | 0.0 | 0.0 | 0.00 | 0.40 | 0.00 | 99 | 1009.8 |
| 20260906084053 | 70 | 252 | 0.0 | 0.0 | 0.00 | 0.40 | 0.00 | 99 | 1009.7 |
| 20260906083553 | 70 | 252 | 0.0 | 0.0 | 0.00 | 0.40 | 0.00 | 99 | 1009.8 |
| 20260906083052 | 70 | 252 | 0.0 | 0.0 | 0.00 | 0.40 | 0.00 | 99 | 1009.8 |
| 20260906082550 | 71 | 252 | 0.0 | 0.0 | 0.00 | 0.40 | 0.00 | 99 | 1009.8 |
| 20260906082050 | 71 | 252 | 0.0 | 0.0 | 0.00 | 0.40 | 0.00 | 99 | 1009.7 |
| 20260906081550 | 71 | 252 | 0.0 | 0.0 | 0.00 | 0.40 | 0.00 | 99 | 1009.8 |
| 20260906081050 | 71 | 252 | 0.0 | 0.0 | 0.00 | 0.40 | 0.00 | 99 | 1009.6 |
| 20260906080550 | 71 | 252 | 0.0 | 0.0 | 0.00 | 0.40 | 0.00 | 99 | 1009.6 |
| 20260906075549 | 71 | 252 | 0.0 | 0.0 | 0.00 | 0.40 | 0.00 | 99 | 1009.7 |
| 20260906075049 | 71 | 252 | 0.0 | 0.0 | 0.00 | 0.40 | 0.00 | 99 | 1009.7 |
| 20260906074557 | 71 | 252 | 0.0 | 0.0 | 0.00 | 0.40 | 0.00 | 99 | 1009.7 |
| 20260906074049 | 71 | 252 | 0.0 | 0.0 | 0.00 | 0.40 | 0.00 | 99 | 1009.6 |
| 20260906073549 | 71 | 252 | 0.0 | 0.0 | 0.00 | 0.40 | 0.00 | 99 | 1009.7 |
| 20260906073048 | 71 | 252 | 0.0 | 0.0 | 0.00 | 0.40 | 0.00 | 99 | 1009.7 |
| 20260906072548 | 71 | 252 | 0.0 | 0.0 | 0.00 | 0.40 | 0.00 | 99 | 1009.7 |
| 20260906072047 | 71 | 252 | 0.0 | 0.0 | 0.00 | 0.40 | 0.00 | 99 | 1009.7 |
| 20260906071546 | 71 | 252 | 0.0 | 0.0 | 0.00 | 0.40 | 0.00 | 99 | 1009.6 |
| 20260906071046 | 71 | 252 | 0.0 | 0.0 | 0.00 | 0.40 | 0.00 | 99 | 1009.6 |
| 20260906070546 | 71 | 252 | 0.0 | 0.0 | 0.00 | 0.40 | 0.00 | 99 | 1009.6 |
| 20260906065545 | 72 | 252 | 0.0 | 0.0 | 0.00 | 0.40 | 0.00 | 99 | 1009.6 |
| 20260906065045 | 72 | 252 | 0.0 | 0.0 | 0.00 | 0.40 | 0.00 | 99 | 1009.6 |
| 20260906064544 | 72 | 252 | 0.0 | 0.0 | 0.00 | 0.40 | 0.00 | 99 | 1009.6 |
| 20260906064045 | 72 | 253 | 0.0 | 0.9 | 0.00 | 0.40 | 0.00 | 99 | 1009.7 |
| 20260906063545 | 72 | 253 | 0.0 | 0.9 | 0.00 | 0.40 | 0.00 | 99 | 1009.8 |
| 20260906063044 | 72 | 286 | 0.0 | 0.9 | 0.00 | 0.40 | 0.00 | 99 | 1009.8 |
| 20260906062543 | 72 | 286 | 0.0 | 0.9 | 0.00 | 0.40 | 0.00 | 99 | 1009.8 |
| 20260906062045 | 72 | 279 | 0.0 | 1.7 | 0.00 | 0.40 | 0.00 | 99 | 1009.7 |
| 20260906061543 | 72 | 279 | 0.0 | 1.7 | 0.00 | 0.40 | 0.00 | 99 | 1009.6 |
| 20260906061046 | 72 | 276 | 0.0 | 0.9 | 0.00 | 0.40 | 0.00 | 99 | 1009.7 |
| 20260906060541 | 72 | 276 | 0.0 | 1.7 | 0.00 | 0.40 | 0.00 | 99 | 1009.8 |
| 20260906055543 | 72 | 267 | 0.0 | 0.9 | 0.00 | 0.40 | 0.00 | 99 | 1010.0 |
| 20260906055041 | 72 | 267 | 0.0 | 1.7 | 0.00 | 0.40 | 0.00 | 99 | 1010.1 |
| 20260906054540 | 72 | 254 | 0.0 | 1.7 | 0.00 | 0.40 | 0.00 | 99 | 1010.1 |
| 20260906054039 | 72 | 278 | 0.9 | 2.6 | 0.00 | 0.40 | 0.00 | 99 | 1010.1 |
| 20260906053538 | 72 | 256 | 0.0 | 2.6 | 0.00 | 0.40 | 0.00 | 99 | 1010.1 |
| 20260906053038 | 72 | 39 | 0.0 | 0.9 | 0.00 | 0.40 | 0.00 | 99 | 1010.3 |
| 20260906052541 | 72 | 39 | 0.0 | 0.9 | 0.00 | 0.40 | 0.00 | 99 | 1010.3 |
| 20260906052038 | 72 | 39 | 0.0 | 1.7 | 0.00 | 0.40 | 0.00 | 99 | 1010.3 |
| 20260906051542 | 72 | 39 | 0.0 | 2.6 | 0.00 | 0.40 | 0.00 | 99 | 1010.6 |
| 20260906051040 | 72 | 261 | 0.9 | 3.5 | 0.00 | 0.40 | 0.00 | 99 | 1010.5 |
| 20260906050537 | 72 | 268 | 0.9 | 3.5 | 0.00 | 0.40 | 0.00 | 99 | 1010.6 |
| 20260906045538 | 72 | 254 | 0.0 | 0.9 | 0.00 | 0.40 | 0.00 | 99 | 1010.7 |
| 20260906045036 | 72 | 254 | 0.0 | 0.9 | 0.00 | 0.40 | 0.00 | 99 | 1010.7 |
| 20260906044536 | 72 | 82 | 0.0 | 0.9 | 0.00 | 0.40 | 0.00 | 99 | 1010.8 |
| 20260906044035 | 72 | 82 | 0.0 | 0.9 | 0.00 | 0.40 | 0.00 | 99 | 1010.9 |
| 20260906043535 | 72 | 82 | 0.0 | 0.0 | 0.00 | 0.40 | 0.00 | 99 | 1010.9 |
| 20260906043036 | 72 | 82 | 0.0 | 0.9 | 0.00 | 0.40 | 0.00 | 99 | 1010.8 |
| 20260906042534 | 72 | 82 | 0.0 | 0.9 | 0.00 | 0.40 | 0.00 | 99 | 1010.7 |
| 20260906042034 | 72 | 82 | 0.0 | 0.9 | 0.00 | 0.40 | 0.00 | 99 | 1010.6 |
| 20260906041541 | 72 | 255 | 0.0 | 0.9 | 0.00 | 0.40 | 0.00 | 99 | 1010.6 |
| 20260906041032 | 72 | 255 | 0.0 | 0.9 | 0.00 | 0.40 | 0.00 | 99 | 1010.6 |
| 20260906040530 | 72 | 255 | 0.0 | 1.7 | 0.00 | 0.40 | 0.00 | 99 | 1010.3 |
| 20260906035530 | 72 | 258 | 0.0 | 1.7 | 0.00 | 0.40 | 0.40 | 99 | 1010.2 |
| 20260906035030 | 72 | 258 | 0.0 | 2.6 | 0.00 | 0.40 | 0.40 | 99 | 1010.3 |
| 20260906034533 | 72 | 229 | 0.9 | 2.6 | 0.00 | 0.40 | 0.40 | 99 | 1010.4 |
| 20260906034034 | 72 | 254 | 0.0 | 0.9 | 0.00 | 0.40 | 0.40 | 99 | 1010.3 |
| 20260906033529 | 72 | 256 | 0.0 | 0.9 | 0.00 | 0.40 | 0.40 | 99 | 1010.3 |
| 20260906033032 | 73 | 257 | 0.0 | 1.7 | 0.00 | 0.40 | 0.40 | 99 | 1010.5 |
| 20260906032528 | 73 | 257 | 0.0 | 1.7 | 0.00 | 0.40 | 0.40 | 99 | 1010.7 |
| 20260906032029 | 73 | 239 | 0.9 | 1.7 | 0.00 | 0.40 | 0.40 | 99 | 1010.8 |
| 20260906031530 | 73 | 247 | 0.0 | 4.3 | 0.00 | 0.40 | 0.40 | 99 | 1010.9 |
| 20260906031033 | 73 | 231 | 0.9 | 2.6 | 0.00 | 0.40 | 0.40 | 99 | 1011.1 |
| 20260906030529 | 72 | 264 | 0.0 | 1.7 | 0.00 | 0.40 | 0.40 | 99 | 1011.1 |
| 20260906025529 | 72 | 248 | 0.9 | 3.5 | 0.00 | 0.40 | 0.40 | 99 | 1011.3 |
| 20260906025029 | 72 | 257 | 0.9 | 2.6 | 0.00 | 0.40 | 0.40 | 99 | 1011.2 |
| 20260906024531 | 72 | 295 | 0.0 | 0.9 | 0.00 | 0.40 | 0.40 | 99 | 1010.9 |
| 20260906024029 | 72 | 295 | 0.0 | 0.9 | 0.00 | 0.40 | 0.40 | 99 | 1010.7 |
| 20260906023529 | 72 | 268 | 0.0 | 1.7 | 0.00 | 0.40 | 0.40 | 99 | 1010.6 |
| 20260906023032 | 72 | 245 | 0.0 | 1.7 | 0.00 | 0.40 | 0.40 | 99 | 1010.7 |
| 20260906022528 | 72 | 65 | 0.0 | 1.7 | 0.00 | 0.40 | 0.40 | 99 | 1010.8 |
| 20260906022032 | 72 | 65 | 0.0 | 0.9 | 0.00 | 0.40 | 0.40 | 99 | 1010.7 |
| 20260906021528 | 71 | 65 | 0.0 | 0.0 | 0.00 | 0.40 | 0.40 | 99 | 1010.9 |
| 20260906021027 | 71 | 65 | 0.0 | 0.0 | 0.00 | 0.40 | 0.40 | 99 | 1010.9 |
| 20260906020529 | 71 | 65 | 0.0 | 0.9 | 0.00 | 0.40 | 0.40 | 99 | 1010.7 |
| 20260906015530 | 71 | 65 | 0.0 | 0.9 | 0.00 | 0.40 | 0.40 | 99 | 1010.8 |
| 20260906015029 | 71 | 65 | 0.0 | 0.9 | 0.00 | 0.40 | 0.40 | 99 | 1010.7 |
| 20260906014534 | 71 | 65 | 0.0 | 0.9 | 0.00 | 0.40 | 0.40 | 99 | 1010.7 |
| 20260906014031 | 71 | 65 | 0.0 | 0.9 | 0.00 | 0.40 | 0.40 | 99 | 1010.8 |
| 20260906013527 | 71 | 65 | 0.0 | 2.6 | 0.00 | 0.40 | 0.40 | 99 | 1010.7 |
| 20260906013027 | 71 | 110 | 0.9 | 2.6 | 0.00 | 0.40 | 0.40 | 99 | 1010.8 |
| 20260906012527 | 71 | 23 | 0.0 | 0.9 | 0.00 | 0.40 | 0.40 | 99 | 1010.6 |
| 20260906012031 | 71 | 23 | 0.0 | 1.7 | 0.00 | 0.40 | 0.40 | 98 | 1010.5 |
| 20260906011527 | 71 | 23 | 0.9 | 1.7 | 0.00 | 0.40 | 0.40 | 98 | 1010.3 |
| 20260906011027 | 71 | 328 | 0.0 | 0.9 | 0.00 | 0.40 | 0.40 | 99 | 1010.1 |
| 20260906010526 | 71 | 305 | 0.0 | 0.9 | 0.00 | 0.40 | 0.40 | 99 | 1009.8 |
| 20260906005526 | 71 | 305 | 0.0 | 0.0 | 0.00 | 0.40 | 0.40 | 98 | 1009.3 |
| 20260906005029 | 71 | 305 | 0.0 | 0.9 | 0.00 | 0.40 | 0.40 | 98 | 1009.1 |
| 20260906004527 | 71 | 305 | 0.0 | 1.7 | 0.00 | 0.40 | 0.40 | 98 | 1009.0 |
| 20260906004027 | 71 | 6 | 0.0 | 1.7 | 0.00 | 0.40 | 0.40 | 98 | 1009.0 |
| 20260906003526 | 71 | 283 | 0.0 | 1.7 | 0.00 | 0.40 | 0.40 | 98 | 1008.8 |
| 20260906003026 | 71 | 283 | 0.0 | 3.5 | 0.00 | 0.40 | 0.40 | 98 | 1008.7 |
| 20260906002525 | 71 | 252 | 0.9 | 3.5 | 0.01 | 0.40 | 0.40 | 98 | 1008.6 |
| 20260906002026 | 71 | 253 | 0.9 | 3.5 | 0.01 | 0.40 | 0.40 | 98 | 1008.5 |
| 20260906001525 | 71 | 251 | 1.7 | 3.5 | 0.02 | 0.40 | 0.40 | 98 | 1008.7 |
| 20260906001027 | 71 | 250 | 1.7 | 3.5 | 0.03 | 0.40 | 0.40 | 98 | 1008.7 |
| 20260906000530 | 71 | 238 | 1.7 | 3.5 | 0.03 | 0.40 | 0.40 | 98 | 1008.8 |
| 20260905235524 | 72 | 261 | 0.9 | 2.6 | 0.03 | 0.41 | 0.40 | 98 | 1008.9 |
| 20260905235024 | 72 | 51 | 0.0 | 0.0 | 0.03 | 0.41 | 0.40 | 98 | 1008.9 |
| 20260905234524 | 72 | 51 | 0.0 | 0.0 | 0.03 | 0.41 | 0.40 | 98 | 1009.1 |
| 20260905234028 | 72 | 51 | 0.0 | 0.0 | 0.03 | 0.41 | 0.40 | 98 | 1009.1 |
| 20260905233524 | 72 | 51 | 0.0 | 0.0 | 0.03 | 0.41 | 0.40 | 98 | 1009.6 |
| 20260905233024 | 71 | 51 | 0.0 | 0.0 | 0.03 | 0.41 | 0.40 | 98 | 1010.1 |
| 20260905232526 | 71 | 51 | 0.0 | 1.7 | 0.03 | 0.41 | 0.40 | 97 | 1010.3 |
| 20260905232023 | 72 | 51 | 0.0 | 1.7 | 0.02 | 0.40 | 0.39 | 97 | 1010.9 |
| 20260905231524 | 71 | 51 | 0.0 | 6.1 | 0.01 | 0.39 | 0.38 | 97 | 1011.3 |
| 20260905231023 | 71 | 51 | 1.7 | 7.0 | 0.00 | 0.38 | 0.37 | 98 | 1011.2 |
| 20260905230529 | 71 | 29 | 4.3 | 7.8 | 0.00 | 0.38 | 0.37 | 98 | 1010.7 |
| 20260905225522 | 70 | 54 | 0.9 | 4.3 | 0.00 | 0.38 | 0.37 | 97 | 1010.8 |
| 20260905225022 | 70 | 230 | 0.0 | 1.7 | 0.00 | 0.38 | 0.37 | 97 | 1010.1 |
| 20260905224522 | 70 | 263 | 0.0 | 2.6 | 0.00 | 0.38 | 0.37 | 97 | 1009.3 |
| 20260905224022 | 70 | 253 | 0.0 | 2.6 | 0.00 | 0.38 | 0.37 | 97 | 1009.2 |
| 20260905223525 | 70 | 224 | 0.9 | 1.7 | 0.00 | 0.38 | 0.37 | 97 | 1009.2 |
| 20260905223022 | 70 | 278 | 0.0 | 0.9 | 0.01 | 0.38 | 0.37 | 97 | 1009.1 |
| 20260905222526 | 70 | 289 | 0.0 | 0.9 | 0.02 | 0.38 | 0.37 | 97 | 1009.0 |
| 20260905222022 | 70 | 265 | 0.0 | 0.9 | 0.02 | 0.38 | 0.37 | 96 | 1009.0 |
| 20260905221532 | 70 | 265 | 0.0 | 1.7 | 0.03 | 0.38 | 0.37 | 96 | 1009.0 |
| 20260905221021 | 71 | 264 | 0.9 | 1.7 | 0.03 | 0.38 | 0.37 | 96 | 1009.3 |
| 20260905220520 | 71 | 266 | 0.0 | 3.5 | 0.04 | 0.38 | 0.37 | 95 | 1009.5 |
| 20260905215519 | 71 | 297 | 0.9 | 3.5 | 0.04 | 0.38 | 0.37 | 95 | 1009.8 |
| 20260905215018 | 71 | 283 | 1.7 | 3.5 | 0.04 | 0.38 | 0.37 | 95 | 1009.8 |
| 20260905214519 | 71 | 259 | 0.0 | 4.3 | 0.05 | 0.38 | 0.37 | 95 | 1009.6 |
| 20260905214017 | 72 | 283 | 1.7 | 5.2 | 0.09 | 0.38 | 0.37 | 95 | 1009.6 |
| 20260905213516 | 72 | 280 | 0.0 | 5.2 | 0.12 | 0.38 | 0.37 | 96 | 1009.3 |
| 20260905213019 | 72 | 285 | 0.9 | 5.2 | 0.15 | 0.38 | 0.37 | 95 | 1009.3 |
| 20260905212514 | 73 | 359 | 0.0 | 4.3 | 0.18 | 0.37 | 0.36 | 95 | 1009.8 |
| 20260905212012 | 74 | 194 | 1.7 | 4.3 | 0.25 | 0.36 | 0.35 | 96 | 1009.6 |
| 20260905211513 | 74 | 262 | 2.6 | 4.3 | 0.27 | 0.36 | 0.35 | 96 | 1009.4 |
| 20260905211012 | 75 | 246 | 0.0 | 3.5 | 0.31 | 0.35 | 0.34 | 96 | 1009.2 |
| 20260905210514 | 75 | 290 | 1.7 | 3.5 | 0.32 | 0.35 | 0.34 | 96 | 1009.1 |
| 20260905205511 | 75 | 35 | 0.0 | 6.1 | 0.31 | 0.34 | 0.33 | 95 | 1009.5 |
| 20260905205016 | 75 | 304 | 0.9 | 8.7 | 0.31 | 0.34 | 0.33 | 94 | 1009.8 |
| 20260905204511 | 76 | 248 | 1.7 | 8.7 | 0.31 | 0.34 | 0.33 | 93 | 1009.9 |
| 20260905204010 | 77 | 256 | 2.6 | 6.1 | 0.28 | 0.31 | 0.30 | 93 | 1009.3 |
| 20260905203511 | 77 | 162 | 0.9 | 7.8 | 0.25 | 0.28 | 0.27 | 92 | 1009.5 |
| 20260905203012 | 79 | 53 | 2.6 | 7.8 | 0.22 | 0.25 | 0.24 | 91 | 1010.0 |
| 20260905202510 | 80 | 84 | 0.0 | 4.3 | 0.18 | 0.21 | 0.20 | 92 | 1009.3 |
| 20260905202009 | 80 | 141 | 1.7 | 10.4 | 0.11 | 0.14 | 0.13 | 90 | 1009.0 |
| 20260905201516 | 82 | 94 | 1.7 | 10.4 | 0.07 | 0.10 | 0.09 | 89 | 1009.0 |
| 20260905201008 | 84 | 51 | 2.6 | 7.0 | 0.03 | 0.06 | 0.05 | 90 | 1008.5 |
| 20260905200508 | 85 | 79 | 4.3 | 0.0 | 0.00 | 0.00 | 0.03 | 89 | 1007.8 |
| 20260905195507 | 87 | 53 | 3.5 | 7.8 | 0.00 | 0.03 | 0.02 | 86 | 1008.0 |
| 20260905195007 | 88 | 63 | 1.7 | 3.5 | 0.00 | 0.03 | 0.02 | 85 | 1007.8 |
| 20260905194506 | 89 | 101 | 0.0 | 3.5 | 0.00 | 0.03 | 0.02 | 83 | 1008.0 |
| 20260905194006 | 90 | 70 | 0.9 | 3.5 | 0.00 | 0.03 | 0.02 | 82 | 1008.3 |
| 20260905193506 | 91 | 128 | 0.9 | 6.1 | 0.00 | 0.03 | 0.02 | 81 | 1008.3 |
| 20260905193009 | 92 | 133 | 2.6 | 6.1 | 0.00 | 0.03 | 0.02 | 81 | 1008.2 |
| 20260905192506 | 92 | 94 | 1.7 | 5.2 | 0.00 | 0.03 | 0.02 | 81 | 1008.5 |
| 20260905192005 | 91 | 93 | 1.7 | 3.5 | 0.00 | 0.03 | 0.02 | 80 | 1008.5 |
| 20260905191503 | 90 | 107 | 0.9 | 3.5 | 0.00 | 0.03 | 0.02 | 84 | 1008.5 |
| 20260905191001 | 90 | 85 | 0.9 | 3.5 | 0.00 | 0.03 | 0.02 | 84 | 1008.7 |
| 20260905190600 | 90 | 79 | 0.9 | 3.5 | 0.00 | 0.03 | 0.02 | 83 | 1008.9 |
| 20260905185601 | 90 | 51 | 0.9 | 5.2 | 0.01 | 0.03 | 0.02 | 83 | 1009.0 |
| 20260905185102 | 90 | 90 | 0.9 | 2.6 | 0.01 | 0.03 | 0.02 | 84 | 1009.1 |
| 20260905184619 | 90 | 100 | 0.9 | 2.6 | 0.01 | 0.03 | 0.02 | 82 | 1009.2 |
| 20260905184101 | 91 | 116 | 0.9 | 2.6 | 0.01 | 0.03 | 0.02 | 81 | 1009.2 |
| 20260905183601 | 91 | 252 | 0.0 | 3.5 | 0.01 | 0.03 | 0.02 | 80 | 1009.3 |
| 20260905183058 | 91 | 106 | 0.9 | 3.5 | 0.01 | 0.03 | 0.02 | 79 | 1009.4 |
| 20260905182556 | 91 | 73 | 0.0 | 1.7 | 0.01 | 0.03 | 0.02 | 79 | 1009.5 |
| 20260905182058 | 91 | 73 | 0.9 | 2.6 | 0.01 | 0.03 | 0.02 | 77 | 1009.6 |
| 20260905181555 | 91 | 56 | 0.9 | 2.6 | 0.01 | 0.03 | 0.02 | 75 | 1009.6 |
| 20260905181054 | 93 | 45 | 0.9 | 3.5 | 0.01 | 0.03 | 0.02 | 74 | 1009.6 |
| 20260905180554 | 94 | 72 | 0.9 | 2.6 | 0.01 | 0.03 | 0.02 | 72 | 1009.7 |
| 20260905180155 | 92 | 20 | 0.9 | 4.3 | 0.01 | 0.03 | 0.02 | 73 | 1009.6 |
| 20260905175552 | 92 | 4 | 0.9 | 4.3 | 0.00 | 0.02 | 0.01 | 75 | 1009.7 |
| 20260905175051 | 92 | 337 | 1.7 | 4.3 | 0.00 | 0.02 | 0.01 | 75 | 1009.7 |
| 20260905174556 | 92 | 54 | 0.9 | 4.3 | 0.00 | 0.02 | 0.01 | 75 | 1009.7 |
| 20260905174051 | 92 | 60 | 1.7 | 4.3 | 0.00 | 0.02 | 0.01 | 73 | 1009.8 |
| 20260905173549 | 92 | 237 | 1.7 | 4.3 | 0.00 | 0.02 | 0.01 | 76 | 1009.9 |
| 20260905173048 | 93 | 55 | 1.7 | 3.5 | 0.00 | 0.02 | 0.01 | 73 | 1009.9 |
| 20260905172547 | 93 | 231 | 0.0 | 2.6 | 0.00 | 0.02 | 0.01 | 75 | 1009.9 |
| 20260905172051 | 92 | 359 | 0.9 | 2.6 | 0.00 | 0.02 | 0.01 | 74 | 1010.0 |
| 20260905171547 | 92 | 37 | 0.0 | 4.3 | 0.00 | 0.02 | 0.01 | 74 | 1010.0 |
| 20260905171047 | 92 | 210 | 1.7 | 6.1 | 0.00 | 0.02 | 0.01 | 75 | 1010.0 |
| 20260905170546 | 92 | 267 | 1.7 | 6.1 | 0.00 | 0.02 | 0.01 | 75 | 1010.1 |
| 20260905165543 | 91 | 6 | 1.7 | 5.2 | 0.00 | 0.02 | 0.01 | 75 | 1010.4 |
| 20260905165044 | 91 | 347 | 1.7 | 7.0 | 0.00 | 0.02 | 0.01 | 78 | 1010.5 |
| 20260905164542 | 91 | 23 | 3.5 | 7.0 | 0.00 | 0.02 | 0.01 | 77 | 1010.6 |
| 20260905164040 | 91 | 63 | 0.9 | 6.1 | 0.00 | 0.02 | 0.01 | 78 | 1010.7 |
| 20260905163541 | 92 | 49 | 2.6 | 6.1 | 0.00 | 0.02 | 0.01 | 77 | 1010.7 |
| 20260905163040 | 91 | 8 | 0.9 | 4.3 | 0.00 | 0.02 | 0.01 | 76 | 1010.7 |
| 20260905162539 | 90 | 210 | 0.9 | 6.1 | 0.00 | 0.02 | 0.01 | 78 | 1010.9 |
| 20260905162039 | 90 | 4 | 3.5 | 7.0 | 0.00 | 0.02 | 0.01 | 78 | 1010.9 |
| 20260905161538 | 91 | 37 | 2.6 | 8.7 | 0.00 | 0.02 | 0.01 | 77 | 1011.0 |
| 20260905161039 | 91 | 43 | 3.5 | 8.7 | 0.00 | 0.02 | 0.01 | 76 | 1011.1 |
| 20260905160537 | 91 | 250 | 1.7 | 5.2 | 0.00 | 0.02 | 0.01 | 74 | 1011.2 |
| 20260905160037 | 91 | 350 | 0.9 | 4.3 | 0.00 | 0.02 | 0.01 | 74 | 1011.2 |
| 20260905155535 | 92 | 234 | 0.9 | 4.3 | 0.00 | 0.02 | 0.01 | 74 | 1011.2 |
| 20260905155036 | 92 | 78 | 0.9 | 6.1 | 0.00 | 0.02 | 0.01 | 75 | 1011.2 |
| 20260905154537 | 92 | 213 | 2.6 | 6.1 | 0.00 | 0.02 | 0.01 | 73 | 1011.2 |
| 20260905154035 | 92 | 285 | 0.9 | 4.3 | 0.00 | 0.02 | 0.01 | 74 | 1011.2 |
| 20260905153534 | 92 | 258 | 0.0 | 4.3 | 0.00 | 0.02 | 0.01 | 75 | 1011.2 |
| 20260905153133 | 91 | 7 | 0.9 | 6.1 | 0.00 | 0.02 | 0.01 | 77 | 1011.3 |
| 20260905152531 | 91 | 6 | 1.7 | 6.1 | 0.00 | 0.02 | 0.01 | 76 | 1011.3 |
| 20260905152030 | 91 | 51 | 0.9 | 5.2 | 0.00 | 0.02 | 0.01 | 77 | 1011.2 |
| 20260905151529 | 90 | 233 | 0.9 | 5.2 | 0.00 | 0.02 | 0.01 | 76 | 1011.3 |
| 20260905151036 | 90 | 65 | 0.9 | 7.8 | 0.00 | 0.02 | 0.01 | 77 | 1011.4 |
| 20260905150528 | 90 | 244 | 1.7 | 7.8 | 0.00 | 0.02 | 0.01 | 78 | 1011.3 |
| 20260905150028 | 90 | 266 | 0.9 | 9.6 | 0.00 | 0.02 | 0.01 | 77 | 1011.2 |
| 20260905145528 | 90 | 258 | 3.5 | 9.6 | 0.00 | 0.02 | 0.01 | 77 | 1011.3 |
| 20260905145024 | 90 | 71 | 1.7 | 5.2 | 0.00 | 0.02 | 0.01 | 77 | 1011.3 |
| 20260905144525 | 89 | 246 | 1.7 | 5.2 | 0.00 | 0.02 | 0.01 | 77 | 1011.3 |
| 20260905144023 | 89 | 333 | 1.7 | 6.1 | 0.00 | 0.02 | 0.01 | 79 | 1011.3 |
| 20260905143524 | 89 | 264 | 2.6 | 7.0 | 0.00 | 0.02 | 0.01 | 77 | 1011.4 |
| 20260905143125 | 89 | 248 | 1.7 | 5.2 | 0.00 | 0.02 | 0.01 | 79 | 1011.3 |
| 20260905142524 | 89 | 243 | 0.0 | 4.3 | 0.00 | 0.02 | 0.01 | 79 | 1011.3 |
| 20260905142023 | 89 | 240 | 1.7 | 4.3 | 0.00 | 0.02 | 0.01 | 79 | 1011.4 |
| 20260905141522 | 89 | 181 | 0.0 | 4.3 | 0.00 | 0.02 | 0.01 | 80 | 1011.4 |
| 20260905141021 | 88 | 264 | 0.0 | 5.2 | 0.00 | 0.02 | 0.01 | 81 | 1011.4 |
| 20260905140521 | 88 | 222 | 2.6 | 5.2 | 0.00 | 0.02 | 0.01 | 80 | 1011.4 |
| 20260905140020 | 88 | 351 | 0.9 | 5.2 | 0.00 | 0.02 | 0.01 | 80 | 1011.4 |
| 20260905135519 | 88 | 261 | 0.0 | 4.3 | 0.00 | 0.02 | 0.01 | 82 | 1011.3 |
| 20260905135018 | 87 | 243 | 0.9 | 4.3 | 0.00 | 0.02 | 0.01 | 83 | 1011.4 |
| 20260905134519 | 87 | 248 | 0.0 | 2.6 | 0.00 | 0.02 | 0.01 | 83 | 1011.4 |
| 20260905134015 | 87 | 254 | 0.9 | 4.3 | 0.00 | 0.02 | 0.01 | 84 | 1011.4 |
| 20260905133513 | 86 | 244 | 0.9 | 4.3 | 0.00 | 0.02 | 0.01 | 84 | 1011.3 |
| 20260905133112 | 86 | 232 | 0.9 | 6.1 | 0.00 | 0.02 | 0.01 | 85 | 1011.4 |
| 20260905132511 | 85 | 218 | 0.9 | 6.1 | 0.00 | 0.02 | 0.01 | 86 | 1011.4 |